When you browse on this site, cookies collect data to enhance your experience and personalize the content and advertising you see.
Visit our Privacy Policy to learn more. By continuing to use the site, you agree to this use of cookies and data.
  • In Romania
  • List of Countries
  • For 7 days
  • Water Temperature
  • Satellite Maps
  • Weather Map
  • Weather Widgets
  • user-avatar
    Login

    Hourly Weather Gabrovo

    Today, 26 June, Wednesday

    Time Temperature Precipitation Wind Pressure Humidity
    00:00 +18°C° 0 mm 3 mps 706 mmHg 86%
    01:00 +18°C° 0 mm 3 mps 706 mmHg 88%
    02:00 +18°C° 0 mm 2 mps 706 mmHg 89%
    03:00 +17°C° 0.1 mm 2 mps 706 mmHg 89%
    04:00 +17°C° 0.1 mm 3 mps 706 mmHg 89%
    05:00 +17°C° 0.1 mm 3 mps 706 mmHg 89%
    06:00 +18°C° 0.1 mm 3 mps 706 mmHg 86%
    07:00 +20°C° 0.1 mm 3 mps 707 mmHg 83%
    08:00 +21°C° 0 mm 3 mps 707 mmHg 80%
    09:00 +21°C° 0.5 mm 4 mps 707 mmHg 77%
    10:00 +22°C° 0.5 mm 4 mps 707 mmHg 75%
    11:00 +23°C° 0.5 mm 4 mps 707 mmHg 73%
    12:00 +23°C° 0.7 mm 4 mps 707 mmHg 72%
    13:00 +25°C° 0.7 mm 4 mps 707 mmHg 70%
    14:00 +25°C° 0 mm 3 mps 707 mmHg 69%
    15:00 +25°C° 1.1 mm 3 mps 707 mmHg 71%
    16:00 +25°C° 1.1 mm 3 mps 707 mmHg 73%
    17:00 +25°C° 1.1 mm 3 mps 707 mmHg 74%
    18:00 +22°C° 0.6 mm 3 mps 706 mmHg 79%
    19:00 +21°C° 0.6 mm 2 mps 706 mmHg 83%
    20:00 +19°C° 0.6 mm 2 mps 706 mmHg 87%
    21:00 +19°C° 0 mm 2 mps 706 mmHg 86%
    22:00 +18°C° 0 mm 2 mps 706 mmHg 85%
    23:00 +19°C° 0 mm 1 mps 706 mmHg 84%

    Tomorrow, 27 June, Thursday

    Time Temperature Precipitation Wind Pressure Humidity
    00:00 +18°C° 0 mm 2 mps 706 mmHg 84%
    01:00 +17°C° 0 mm 2 mps 706 mmHg 84%
    02:00 +17°C° 0 mm 2 mps 706 mmHg 84%
    03:00 +17°C° 0 mm 2 mps 705 mmHg 86%
    04:00 +17°C° 0 mm 2 mps 705 mmHg 87%
    05:00 +17°C° 0 mm 2 mps 705 mmHg 89%
    06:00 +18°C° 0 mm 2 mps 705 mmHg 84%
    07:00 +20°C° 0 mm 2 mps 705 mmHg 79%
    08:00 +23°C° 0 mm 2 mps 705 mmHg 73%
    09:00 +24°C° 0 mm 2 mps 705 mmHg 67%
    10:00 +26°C° 0 mm 2 mps 705 mmHg 60%
    11:00 +27°C° 0 mm 2 mps 705 mmHg 54%
    12:00 +28°C° 0 mm 2 mps 705 mmHg 51%
    13:00 +29°C° 0 mm 2 mps 704 mmHg 49%
    14:00 +29°C° 0 mm 1 mps 704 mmHg 46%
    15:00 +29°C° 0 mm 2 mps 703 mmHg 49%
    16:00 +29°C° 0 mm 2 mps 703 mmHg 51%
    17:00 +28°C° 0 mm 2 mps 702 mmHg 53%
    18:00 +26°C° 0 mm 2 mps 701 mmHg 59%
    19:00 +24°C° 0 mm 1 mps 701 mmHg 65%
    20:00 +22°C° 0 mm 1 mps 700 mmHg 71%
    21:00 +21°C° 0 mm 1 mps 700 mmHg 71%
    22:00 +21°C° 0 mm 1 mps 700 mmHg 70%
    23:00 +20°C° 0 mm 1 mps 700 mmHg 70%

    Day after tomorrow, 28 June, Friday

    Time Temperature Precipitation Wind Pressure Humidity
    00:00 +20°C° 0 mm 1 mps 700 mmHg 72%
    01:00 +20°C° 0 mm 1 mps 700 mmHg 75%
    02:00 +19°C° 0 mm 1 mps 699 mmHg 78%
    03:00 +19°C° 0 mm 1 mps 699 mmHg 79%
    04:00 +19°C° 0 mm 1 mps 699 mmHg 81%
    05:00 +19°C° 0 mm 1 mps 699 mmHg 82%
    06:00 +21°C° 0.5 mm 1 mps 699 mmHg 79%
    07:00 +23°C° 0.5 mm 2 mps 699 mmHg 76%
    08:00 +24°C° 0.5 mm 2 mps 700 mmHg 73%
    09:00 +25°C° 0.8 mm 2 mps 700 mmHg 70%
    10:00 +26°C° 0.8 mm 2 mps 700 mmHg 67%
    11:00 +27°C° 0.8 mm 2 mps 700 mmHg 65%
    12:00 +27°C° 0.4 mm 3 mps 700 mmHg 63%
    13:00 +27°C° 0.4 mm 3 mps 700 mmHg 62%
    14:00 +27°C° 0.4 mm 4 mps 700 mmHg 60%
    15:00 +26°C° 0.1 mm 4 mps 700 mmHg 63%
    16:00 +25°C° 0.1 mm 4 mps 700 mmHg 67%
    17:00 +23°C° 0.1 mm 4 mps 700 mmHg 70%
    18:00 +21°C° 0.5 mm 3 mps 700 mmHg 75%
    19:00 +20°C° 0.5 mm 2 mps 700 mmHg 81%
    20:00 +18°C° 0.5 mm 2 mps 700 mmHg 86%
    21:00 +19°C° 0.1 mm 1 mps 701 mmHg 85%
    22:00 +19°C° 0.1 mm 1 mps 701 mmHg 84%
    23:00 +18°C° 0.1 mm 1 mps 702 mmHg 83%

    29 June, Saturday

    Time Temperature Precipitation Wind Pressure Humidity
    00:00 +18°C° 0.2 mm 1 mps 702 mmHg 85%
    01:00 +18°C° 0.2 mm 1 mps 702 mmHg 87%
    02:00 +16°C° 0.2 mm 1 mps 702 mmHg 89%
    03:00 +16°C° 0.1 mm 1 mps 702 mmHg 89%
    04:00 +16°C° 0.1 mm 1 mps 702 mmHg 89%
    05:00 +15°C° 0.1 mm 1 mps 702 mmHg 89%
    06:00 +15°C° 0 mm 1 mps 702 mmHg 86%
    07:00 +16°C° 0 mm 1 mps 702 mmHg 84%
    08:00 +16°C° 0 mm 1 mps 703 mmHg 81%
    09:00 +18°C° 0.1 mm 1 mps 703 mmHg 76%
    10:00 +19°C° 0.1 mm 1 mps 703 mmHg 71%
    11:00 +21°C° 0.1 mm 1 mps 703 mmHg 66%
    12:00 +21°C° 0.1 mm 1 mps 703 mmHg 64%
    13:00 +22°C° 0.1 mm 1 mps 703 mmHg 61%
    14:00 +23°C° 0.1 mm 1 mps 703 mmHg 58%
    15:00 +23°C° 0.1 mm 1 mps 703 mmHg 59%
    16:00 +23°C° 0.1 mm 1 mps 703 mmHg 60%
    17:00 +23°C° 0.1 mm 1 mps 703 mmHg 60%
    18:00 +21°C° 0.1 mm 1 mps 703 mmHg 66%
    19:00 +19°C° 0.1 mm 1 mps 702 mmHg 72%
    20:00 +18°C° 0.1 mm 1 mps 702 mmHg 78%
    21:00 +16°C° 0 mm 1 mps 703 mmHg 78%
    22:00 +16°C° 0 mm 1 mps 703 mmHg 78%
    23:00 +15°C° 0 mm 1 mps 703 mmHg 78%

    30 June, Sunday

    Time Temperature Precipitation Wind Pressure Humidity
    00:00 +15°C° 0 mm 1 mps 703 mmHg 79%
    01:00 +14°C° 0 mm 1 mps 703 mmHg 80%
    02:00 +14°C° 0 mm 1 mps 703 mmHg 80%
    03:00 +14°C° 0 mm 1 mps 703 mmHg 82%
    04:00 +13°C° 0 mm 1 mps 703 mmHg 84%
    05:00 +13°C° 0 mm 1 mps 703 mmHg 85%
    06:00 +15°C° 0 mm 1 mps 704 mmHg 80%
    07:00 +16°C° 0 mm 1 mps 704 mmHg 75%
    08:00 +19°C° 0 mm 1 mps 705 mmHg 70%
    09:00 +21°C° 0.1 mm 1 mps 705 mmHg 66%
    10:00 +22°C° 0.1 mm 1 mps 706 mmHg 61%
    11:00 +23°C° 0.1 mm 1 mps 706 mmHg 57%
    12:00 +24°C° 0.1 mm 1 mps 706 mmHg 54%
    13:00 +25°C° 0.1 mm 1 mps 706 mmHg 52%
    14:00 +25°C° 0.1 mm 1 mps 706 mmHg 49%
    15:00 +25°C° 0 mm 1 mps 705 mmHg 50%
    16:00 +25°C° 0 mm 1 mps 705 mmHg 51%
    17:00 +24°C° 0 mm 1 mps 705 mmHg 52%
    18:00 +23°C° 0 mm 1 mps 705 mmHg 60%
    19:00 +21°C° 0 mm 1 mps 705 mmHg 68%
    20:00 +18°C° 0 mm 2 mps 704 mmHg 76%
    21:00 +18°C° 0 mm 1 mps 705 mmHg 75%
    22:00 +16°C° 0 mm 1 mps 705 mmHg 75%
    23:00 +16°C° 0 mm 1 mps 705 mmHg 75%

    1 July, Monday

    Time Temperature Precipitation Wind Pressure Humidity
    00:00 +16°C° 0 mm 1 mps 705 mmHg 73%
    01:00 +16°C° 0 mm 1 mps 705 mmHg 71%
    02:00 +15°C° 0 mm 1 mps 705 mmHg 69%
    03:00 +15°C° 0 mm 1 mps 705 mmHg 69%
    04:00 +15°C° 0 mm 1 mps 705 mmHg 70%
    05:00 +15°C° 0 mm 1 mps 705 mmHg 70%
    06:00 +18°C° 0 mm 1 mps 705 mmHg 66%
    07:00 +20°C° 0 mm 1 mps 706 mmHg 62%
    08:00 +22°C° 0 mm 1 mps 706 mmHg 59%
    09:00 +24°C° 0 mm 1 mps 706 mmHg 55%
    10:00 +25°C° 0 mm 1 mps 707 mmHg 50%
    11:00 +25°C° 0 mm 0 mps 707 mmHg 46%
    12:00 +26°C° 0 mm 0 mps 707 mmHg 45%
    13:00 +26°C° 0 mm 0 mps 706 mmHg 44%
    14:00 +27°C° 0 mm 0 mps 706 mmHg 43%
    15:00 +27°C° 0 mm 0 mps 706 mmHg 44%
    16:00 +26°C° 0 mm 0 mps 706 mmHg 45%
    17:00 +26°C° 0 mm 0 mps 705 mmHg 46%
    18:00 +24°C° 0 mm 0 mps 705 mmHg 54%
    19:00 +22°C° 0 mm 0 mps 705 mmHg 61%
    20:00 +20°C° 0 mm 0 mps 704 mmHg 68%
    21:00 +19°C° 0 mm 0 mps 704 mmHg 70%
    22:00 +20°C° 0 mm 1 mps 704 mmHg 72%
    23:00 +20°C° 0 mm 1 mps 704 mmHg 73%
    Show more